Total_Precipitation_Accumulation
1.66 1.60 1.51 1.30 1.17 1.03 0.91 0.93 1.05 0.99 0.94 0.88 0.72 0.61 0.58 0.55 0.50 0.46 0.45 0.49 0.54 0.77 1.01 1.16 1.21 1.28 1.34 1.31 1.25 1.18 1.06 1.00 0.97 0.95 0.94 0.93 0.94 0.88 0.86 0.83 0.80 0.78 0.78
1.82 1.78 1.66 1.45 1.30 1.15 1.01 0.93 0.98 1.06 1.04 1.02 0.95 0.82 0.73 0.65 0.57 0.52 0.47 0.49 0.54 0.63 0.84 1.01 1.14 1.33 1.55 1.60 1.52 1.39 1.23 1.11 1.06 1.02 1.03 1.04 1.02 0.97 0.97 0.93 0.90 0.90 0.88
1.95 1.94 1.82 1.58 1.45 1.39 1.27 1.18 1.16 1.16 1.11 1.00 0.94 0.92 0.88 0.76 0.66 0.62 0.56 0.53 0.52 0.57 0.72 0.92 1.06 1.27 1.50 1.66 1.73 1.67 1.47 1.25 1.15 1.11 1.10 1.11 1.15 1.11 1.12 1.14 1.04 0.98 0.98
2.10 2.13 2.01 1.76 1.74 1.80 1.66 1.47 1.39 1.29 1.15 1.06 0.98 0.99 0.95 0.89 0.74 0.67 0.64 0.59 0.55 0.57 0.69 0.93 1.05 1.17 1.32 1.51 1.69 1.80 1.73 1.56 1.40 1.26 1.20 1.19 1.17 1.24 1.24 1.27 1.25 1.14 1.14
2.14 2.14 2.11 2.00 2.01 2.04 1.96 1.77 1.66 1.58 1.37 1.23 1.15 1.14 1.15 1.12 1.01 0.86 0.76 0.76 0.72 0.70 0.83 1.04 1.13 1.13 1.14 1.28 1.48 1.66 1.73 1.67 1.51 1.37 1.30 1.28 1.23 1.29 1.36 1.31 1.27 1.25 1.19
2.12 2.10 2.05 2.13 2.19 2.17 2.11 2.05 1.90 1.81 1.69 1.58 1.49 1.37 1.36 1.33 1.20 1.00 0.88 0.86 0.86 0.86 0.96 1.03 1.06 1.14 1.15 1.06 1.15 1.41 1.64 1.71 1.61 1.48 1.38 1.32 1.31 1.33 1.47 1.47 1.41 1.39 1.33
2.39 2.28 2.10 2.14 2.25 2.15 2.04 2.11 2.19 2.18 2.07 1.92 1.85 1.68 1.57 1.45 1.34 1.11 0.93 0.89 0.91 0.94 0.97 1.01 1.04 0.97 0.86 0.82 0.90 1.07 1.35 1.62 1.71 1.65 1.49 1.38 1.38 1.45 1.55 1.69 1.66 1.60 1.57
2.45 2.45 2.41 2.33 2.39 2.35 2.24 2.17 2.23 2.33 2.23 2.19 2.14 2.06 1.86 1.72 1.45 1.21 1.05 0.95 0.92 0.97 0.99 0.97 0.95 0.93 0.82 0.75 0.75 0.87 1.10 1.44 1.68 1.78 1.68 1.56 1.50 1.56 1.70 1.92 1.99 1.86 1.82
2.54 2.46 2.49 2.51 2.49 2.49 2.37 2.28 2.25 2.29 2.32 2.24 2.18 2.30 2.04 1.70 1.46 1.31 1.14 1.03 1.00 0.99 1.02 1.03 0.99 0.94 0.88 0.81 0.77 0.83 0.91 1.12 1.49 1.86 2.02 1.96 1.86 1.81 1.86 2.03 2.24 2.18 2.03
2.51 2.49 2.45 2.47 2.52 2.50 2.43 2.44 2.45 2.32 2.33 2.34 2.27 2.11 1.91 1.65 1.56 1.45 1.30 1.21 1.12 1.05 1.05 1.07 1.03 0.97 0.94 0.90 0.88 0.93 0.97 1.02 1.29 1.74 2.16 2.33 2.24 2.15 2.20 2.33 2.53 2.59 2.35
2.45 2.38 2.38 2.36 2.37 2.42 2.43 2.47 2.52 2.54 2.44 2.34 2.26 2.18 2.07 1.83 1.64 1.61 1.49 1.40 1.37 1.23 1.14 1.11 1.10 1.08 1.03 0.99 0.95 1.01 1.10 1.12 1.30 1.58 1.98 2.32 2.49 2.52 2.55 2.60 2.69 2.81 2.69
2.51 2.35 2.31 2.27 2.25 2.26 2.27 2.37 2.47 2.56 2.52 2.37 2.24 2.08 2.03 1.93 1.77 1.73 1.59 1.42 1.45 1.37 1.27 1.21 1.16 1.15 1.18 1.18 1.18 1.29 1.23 1.29 1.42 1.58 1.89 2.24 2.49 2.60 2.73 2.85 2.90 2.90 2.88
2.59 2.38 2.31 2.30 2.27 2.21 2.23 2.37 2.49 2.52 2.53 2.43 2.33 2.22 2.08 1.93 1.84 1.88 1.86 1.64 1.51 1.39 1.34 1.31 1.24 1.22 1.25 1.31 1.37 1.50 1.39 1.40 1.46 1.60 1.89 2.21 2.36 2.49 2.59 2.68 2.87 2.91 2.90
2.57 2.50 2.43 2.39 2.37 2.33 2.28 2.30 2.32 2.36 2.41 2.38 2.28 2.20 2.11 1.98 1.95 1.96 1.98 2.06 1.96 1.65 1.47 1.37 1.28 1.29 1.34 1.42 1.58 1.69 1.47 1.55 1.48 1.49 1.67 1.90 1.97 2.04 2.21 2.42 2.65 2.81 2.83
2.25 2.40 2.43 2.38 2.31 2.29 2.28 2.28 2.23 2.16 2.20 2.22 2.18 2.10 2.00 1.86 1.88 1.91 1.91 2.03 2.22 2.03 1.60 1.29 1.23 1.25 1.30 1.35 1.55 1.50 1.41 1.58 1.54 1.46 1.48 1.54 1.55 1.57 1.62 1.78 2.01 2.23 2.37
1.82 1.98 2.17 2.24 2.22 2.19 2.17 2.20 2.18 2.07 2.07 1.99 1.94 1.95 1.91 1.79 1.72 1.75 1.85 1.91 2.00 2.08 1.80 1.26 1.12 1.15 1.26 1.30 1.45 1.33 1.31 1.54 1.48 1.42 1.38 1.36 1.36 1.35 1.37 1.44 1.56 1.74 1.88
1.59 1.67 1.79 1.91 1.98 2.02 2.03 2.06 2.02 1.96 1.94 1.90 1.84 1.79 1.74 1.70 1.74 1.70 1.72 1.80 1.89 1.96 1.91 1.41 1.16 1.17 1.29 1.33 1.35 1.28 1.24 1.27 1.29 1.43 1.34 1.27 1.24 1.22 1.23 1.29 1.36 1.45 1.54
1.40 1.40 1.47 1.55 1.63 1.67 1.71 1.75 1.77 1.76 1.75 1.75 1.72 1.71 1.66 1.63 1.62 1.63 1.68 1.71 1.75 1.80 1.84 1.63 1.31 1.21 1.22 1.22 1.23 1.24 1.20 1.17 1.14 1.34 1.31 1.25 1.21 1.17 1.14 1.16 1.23 1.30 1.35
1.40 1.31 1.28 1.32 1.36 1.40 1.44 1.46 1.48 1.51 1.52 1.52 1.56 1.59 1.58 1.63 1.67 1.62 1.60 1.58 1.55 1.56 1.63 1.65 1.43 1.21 1.16 1.14 1.19 1.19 1.14 1.10 1.04 1.13 1.21 1.27 1.26 1.21 1.19 1.17 1.21 1.24 1.23
1.30 1.32 1.23 1.16 1.19 1.23 1.28 1.33 1.35 1.37 1.39 1.43 1.46 1.49 1.51 1.54 1.55 1.56 1.60 1.58 1.54 1.53 1.53 1.58 1.52 1.38 1.30 1.23 1.27 1.29 1.26 1.16 1.09 1.01 1.11 1.19 1.28 1.26 1.17 1.09 1.04 1.08 1.14
1.16 1.23 1.22 1.15 1.10 1.13 1.19 1.24 1.27 1.31 1.32 1.35 1.37 1.39 1.44 1.56 1.62 1.59 1.58 1.57 1.62 1.72 1.73 1.73 1.63 1.46 1.33 1.29 1.26 1.18 1.23 1.21 1.18 1.13 1.12 1.08 1.04 1.03 1.04 1.06 1.04 1.04 1.12
1.08 1.17 1.22 1.22 1.20 1.21 1.44 1.43 1.34 1.32 1.34 1.33 1.32 1.28 1.30 1.38 1.40 1.47 1.50 1.51 1.62 1.78 1.90 1.90 1.71 1.43 1.20 1.11 1.09 1.15 1.28 1.37 1.31 1.04 1.01 1.05 1.03 1.06 1.01 1.00 1.14 1.11 1.11
1.13 1.22 1.28 1.32 1.32 1.38 1.53 1.44 1.43 1.30 1.27 1.27 1.24 1.21 1.18 1.17 1.22 1.12 1.22 1.30 1.34 1.49 1.60 1.56 1.48 1.23 1.09 1.07 1.23 1.36 1.33 1.32 1.16 0.98 1.06 1.17 1.11 1.12 1.03 1.05 1.18 1.11 1.11
1.33 1.38 1.44 1.46 1.46 1.47 1.50 1.42 1.44 1.25 1.16 1.11 1.04 0.98 0.97 0.94 0.97 1.05 1.10 1.18 1.11 1.08 1.11 1.10 1.10 1.06 1.05 1.12 1.33 1.56 1.59 1.56 1.29 1.10 1.10 1.23 1.08 1.06 1.04 1.07 1.17 1.12 1.13
1.43 1.39 1.38 1.37 1.35 1.32 1.34 1.29 1.27 1.12 1.05 0.98 0.90 0.84 0.84 0.81 0.96 1.14 1.16 1.20 1.03 0.92 0.99 1.10 1.19 1.22 1.33 1.39 1.45 1.71 1.89 1.99 1.76 1.29 1.07 1.13 1.02 0.98 1.04 1.07 1.09 1.13 1.12
1.19 1.14 1.10 1.06 1.04 1.01 1.05 1.06 1.09 1.03 0.98 0.88 0.81 0.78 0.86 0.85 1.02 1.17 1.11 1.14 1.09 0.91 0.90 0.98 1.04 1.09 1.10 1.18 1.36 1.41 1.62 1.97 1.82 1.47 1.03 1.09 1.12 1.21 1.46 1.14 1.01 1.01 1.04